San Jose, Costa Rica

7:42 AM CST on July 23, 2017 (GMT -0600)
Juan Santamaria International

Weather History for MROC - March, 2012

Change the Weather History Date:

Wednesday, March 28, 2012

  Actual Average Record
Temperature  
Mean Temperature 76 °F -  
Max Temperature 83 °F 83 °F 90 °F (2017)
Min Temperature 69 °F 65 °F 60 °F (2009)
Cooling Degree Days 11    
Growing Degree Days 26 (Base 50)    
Moisture  
Dew Point 60 °F    
Average Humidity 61    
Maximum Humidity 73    
Minimum Humidity 39    
Precipitation  
Precipitation 0.00 in 0.10 in - ()
Sea Level Pressure  
Sea Level Pressure 29.93 in    
Wind  
Wind Speed 12 mph ()    
Max Wind Speed 20 mph    
Max Gust Speed 23 mph    
Visibility 7.6 miles    
Events      
Averages and records for this station are not official NWS values.
T = Trace of Precipitation, MM = Missing Value Source: Averaged Metar Reports

Daily Weather History Graph

Daily Weather History Graph

Search for Another Location

Airport or City:

Trip Planner

Search our weather history database for the weather conditions in past years. The results will help you decide how hot, cold, wet, or windy it might be!

Date:

Astronomy

Mar. 28, 2012 Rise Set
Actual Time 5:36 AM CST 5:47 PM CST
Civil Twilight 5:15 AM CST 6:08 PM CST
Nautical Twilight 4:50 AM CST 6:32 PM CST
Astronomical Twilight 4:26 AM CST 6:57 PM CST
Moon 9:47 AM CST (3/28) 10:44 PM CST (3/28)
Length of Visible Light 12h 53m
Length of Day
12h 11m
Waxing Crescent, 31% of the Moon is Illuminated
Mar 28
Waxing Crescent
Mar 30
First Quarter
Apr 6
Full
Apr 13
Last Quarter
Apr 21
New

Hourly Weather History & Observations

Time (CST) Temp. Heat Index Dew Point Humidity Pressure Visibility Wind Dir Wind Speed Gust Speed Precip Events Conditions
12:00 AM 70 °F - 60 °F 64% 29.80 in 12 mi ESE 11.5 mph - -   Scattered Clouds
12:00 AM 69.8 °F - 60.8 °F 73% 30.00 in 6.2 mi ESE 11.5 mph 23.0 mph N/A   Partly Cloudy
1:00 AM 69.8 °F - 60.8 °F 73% 29.98 in 6.2 mi East 19.6 mph - N/A   Partly Cloudy
2:00 AM 69.8 °F - 60.8 °F 73% 29.95 in 6.2 mi East 19.6 mph - N/A   Partly Cloudy
3:00 AM 69.8 °F - 60.8 °F 73% 29.94 in 6.2 mi East 11.5 mph 23.0 mph N/A   Partly Cloudy
4:00 AM 69.8 °F - 60.8 °F 73% 29.94 in 6.2 mi East 16.1 mph - N/A   Partly Cloudy
5:00 AM 69.8 °F - 60.8 °F 73% 29.97 in 6.2 mi ENE 12.7 mph - N/A   Partly Cloudy
6:00 AM 70 °F - 61 °F 65% 29.84 in 12 mi ESE 11.5 mph - -   Scattered Clouds
6:00 AM 69.8 °F - 60.8 °F 73% 29.98 in 6.2 mi ESE 11.5 mph 23.0 mph N/A   Scattered Clouds
7:00 AM 73.4 °F - 60.8 °F 65% 29.99 in 6.2 mi ENE 9.2 mph - N/A   Scattered Clouds
8:00 AM 75.2 °F - 60.8 °F 61% 30.00 in 6.2 mi ESE 12.7 mph - N/A   Scattered Clouds
9:00 AM 78 °F - 61 °F 47% 29.85 in 12 mi ESE 11.5 mph - -   Scattered Clouds
9:00 AM 78.8 °F - 60.8 °F 54% 30.01 in 6.2 mi ESE 11.5 mph - N/A   Scattered Clouds
10:00 AM 80.6 °F 81.1 °F 59.0 °F 48% 29.99 in 6.2 mi ESE 11.5 mph - N/A   Mostly Cloudy
11:00 AM 78.8 °F - 59.0 °F 51% 29.99 in 6.2 mi East 13.8 mph - N/A   Scattered Clouds
12:00 PM 81 °F - 60 °F 39% 29.82 in 12 mi East 16.1 mph - -   Partly Cloudy
12:00 PM 80.6 °F 81.5 °F 60.8 °F 51% 29.97 in 6.2 mi East 16.1 mph - N/A   Scattered Clouds
1:00 PM 78.8 °F - 59.0 °F 51% 29.95 in 6.2 mi ESE 12.7 mph - N/A   Mostly Cloudy
2:00 PM 78.8 °F - 60.8 °F 54% 29.92 in 6.2 mi ESE 12.7 mph - N/A   Scattered Clouds
3:00 PM 78 °F - 59 °F 42% 29.74 in 12 mi East 13.8 mph - -   Partly Cloudy
3:00 PM 78.8 °F - 59.0 °F 51% 29.91 in 6.2 mi East 13.8 mph - N/A   Scattered Clouds
4:00 PM 77.0 °F - 59.0 °F 54% 29.90 in 6.2 mi East 15.0 mph - N/A   Scattered Clouds
5:00 PM 73.4 °F - 59.0 °F 61% 29.90 in 6.2 mi East 18.4 mph - N/A   Scattered Clouds
6:00 PM 71 °F - 58 °F 56% 29.83 in 12 mi East 13.8 mph - -   Scattered Clouds
6:00 PM 71.6 °F - 59.0 °F 64% 29.92 in 6.2 mi East 13.8 mph - N/A   Scattered Clouds
7:00 PM 69.8 °F - 59.0 °F 68% 29.94 in 6.2 mi ESE 15.0 mph - N/A   Scattered Clouds
8:00 PM 69.8 °F - 60.8 °F 73% 29.96 in 6.2 mi East 13.8 mph - N/A   Scattered Clouds
9:00 PM 71 °F - 58 °F 55% 29.86 in 12 mi Calm Calm - -   Scattered Clouds
9:00 PM 69.8 °F - 59.0 °F 68% 29.98 in 6.2 mi East 11.5 mph - N/A   Partly Cloudy
10:00 PM 71.6 °F - 57.2 °F 60% 29.99 in 6.2 mi ESE 11.5 mph - N/A   Partly Cloudy
11:00 PM 69.8 °F - 57.2 °F 64% 29.99 in - WNW 575.4 mph - N/A   Clear